Location: Ashtead
(51.3000°N, 0.3000°W)
Time: 11:27:39
(UTC+00:00)

FENGYUN 3A - Pass Details

Date: 26 September 2023
Orbit: 823 x 834 km, 98.6° (Epoch: 11 December)

Event Time Altitude Azimuth Distance (km) Brightness Sun altitude
Rises 03:23:55 0° 12° (NNE) 3,374 7.4 -23.2°
Reaches altitude 10° 03:26:18 10° 8° (N) 2,436 6.6 -22.8°
Maximum altitude 03:31:34 57° 292° (WNW) 971 3.7 -22.1°
Enters shadow 03:32:35 49° 251° (WSW) 1,064 3.8 -22.0°
